Sutton Bonington, United Kingdom

8:29 PM GMT on January 18, 2017 (GMT +0000)
East Midlands

Weather History for EGNX - July, 2013

Change the Weather History Date:

Tuesday, July 30, 2013

  Actual Average Record
Temperature  
Mean Temperature 63 °F -  
Max Temperature 71 °F 68 °F 80 °F (1999)
Min Temperature 55 °F 53 °F 46 °F (2011)
Degree Days  
Heating Degree Days 2    
Growing Degree Days 13 (Base 50)    
Moisture  
Dew Point 55 °F    
Average Humidity 74    
Maximum Humidity 94    
Minimum Humidity 56    
Precipitation  
Precipitation 0.00 in - - ()
Sea Level Pressure  
Sea Level Pressure 29.87 in    
Wind  
Wind Speed 9 mph ()    
Max Wind Speed 16 mph    
Max Gust Speed -    
Visibility 6.2 miles    
Events Rain    
Averages and records for this station are not official NWS values.
T = Trace of Precipitation, MM = Missing Value Source: Averaged Metar Reports

Daily Weather History Graph

Daily Weather History Graph

Search for Another Location

Airport or City:

Trip Planner

Search our weather history database for the weather conditions in past years. The results will help you decide how hot, cold, wet, or windy it might be!

Date:

Astronomy

Jul. 30, 2013 Rise Set
Actual Time 5:20 AM BST 9:01 PM BST
Civil Twilight 4:37 AM BST 9:44 PM BST
Nautical Twilight 3:37 AM BST 10:43 PM BST
Astronomical Twilight 1:56 AM BST 12:19 AM BST
Moon No Moon Rise 3:02 PM BST (7/30)
Length of Visible Light 17h 07m
Length of Day
15h 41m
Last Quarter, 43% of the Moon is Illuminated
Jul 30
Last Quarter
Aug 6
New
Aug 14
First Quarter
Aug 21
Full
Aug 28
Last Quarter

Hourly Weather History & Observations

Time (BST) Temp. Dew Point Humidity Pressure Visibility Wind Dir Wind Speed Gust Speed Precip Events Conditions
12:20 AM 59.0 °F 53.6 °F 82% 29.89 in - SW 8.1 mph - N/A   Clear
12:50 AM 59.0 °F 53.6 °F 82% 29.89 in - SW 11.5 mph - N/A   Clear
1:20 AM 59.0 °F 53.6 °F 82% 29.89 in - SW 13.8 mph - N/A   Clear
1:50 AM 57.2 °F 53.6 °F 88% 29.89 in - SSW 9.2 mph - N/A   Clear
2:20 AM 57.2 °F 53.6 °F 88% 29.92 in - SW 11.5 mph - N/A   Clear
2:50 AM 57.2 °F 53.6 °F 88% 29.92 in - SW 10.4 mph - N/A   Clear
3:20 AM 57.2 °F 53.6 °F 88% 29.92 in - SSW 8.1 mph - N/A   Clear
3:50 AM 55.4 °F 53.6 °F 94% 29.89 in - SW 8.1 mph - N/A   Clear
4:20 AM 55.4 °F 53.6 °F 94% 29.89 in - SW 9.2 mph - N/A   Clear
4:50 AM 57.2 °F 53.6 °F 88% 29.89 in - SW 10.4 mph - N/A   Clear
5:20 AM 57.2 °F 53.6 °F 88% 29.89 in - SW 9.2 mph - N/A   Clear
5:50 AM 57.2 °F 55.4 °F 94% 29.89 in - SW 10.4 mph - N/A   Clear
6:20 AM 59.0 °F 55.4 °F 88% 29.89 in - SW 9.2 mph - N/A   Clear
6:50 AM 59.0 °F 55.4 °F 88% 29.89 in - SW 10.4 mph - N/A   Clear
7:20 AM 59.0 °F 55.4 °F 88% 29.89 in - SW 10.4 mph - N/A   Clear
7:50 AM 60.8 °F 55.4 °F 82% 29.89 in - SW 10.4 mph - N/A   Clear
8:20 AM 62.6 °F 57.2 °F 82% 29.89 in 6.2 mi SW 10.4 mph - N/A   Partly Cloudy
8:50 AM 62.6 °F 55.4 °F 77% 29.89 in 6.2 mi SW 10.4 mph - N/A   Partly Cloudy
9:20 AM 64.4 °F 55.4 °F 73% 29.89 in 6.2 mi SW 11.5 mph - N/A   Partly Cloudy
9:50 AM 62.6 °F 55.4 °F 77% 29.89 in 6.2 mi SW 12.7 mph - N/A   Scattered Clouds
10:20 AM 64.4 °F 55.4 °F 73% 29.89 in 6.2 mi SW 11.5 mph - N/A   Scattered Clouds
10:50 AM 64.4 °F 55.4 °F 73% 29.89 in 6.2 mi SW 8.1 mph - N/A   Scattered Clouds
11:20 AM 64.4 °F 55.4 °F 73% 29.86 in 6.2 mi West 6.9 mph - N/A   Scattered Clouds
11:50 AM 64.4 °F 57.2 °F 77% 29.86 in 6.2 mi WSW 6.9 mph - N/A   Mostly Cloudy
12:20 PM 66.2 °F 55.4 °F 68% 29.86 in 6.2 mi SW 8.1 mph - N/A   Mostly Cloudy
12:50 PM 69.8 °F 55.4 °F 60% 29.86 in 6.2 mi SW 9.2 mph - N/A   Scattered Clouds
1:20 PM 69.8 °F 55.4 °F 60% 29.86 in 6.2 mi West 8.1 mph - N/A   Scattered Clouds
1:50 PM 68.0 °F 55.4 °F 64% 29.83 in 6.2 mi SW 9.2 mph - N/A   Scattered Clouds
2:20 PM 71.6 °F 55.4 °F 57% 29.83 in 6.2 mi SSW 5.8 mph - N/A   Scattered Clouds
2:50 PM 69.8 °F 55.4 °F 60% 29.83 in 6.2 mi SW 5.8 mph - N/A   Scattered Clouds
3:20 PM 66.2 °F 57.2 °F 73% 29.83 in 6.2 mi SW 8.1 mph - N/A Rain Rain Showers
3:50 PM 68.0 °F 59.0 °F 73% 29.83 in 6.2 mi Variable 3.5 mph - N/A   Scattered Clouds
4:20 PM 68.0 °F 57.2 °F 68% 29.83 in 6.2 mi WNW 10.4 mph - N/A   Scattered Clouds
4:50 PM 68.0 °F 57.2 °F 68% 29.83 in 6.2 mi WNW 8.1 mph - N/A   Scattered Clouds
5:20 PM 69.8 °F 57.2 °F 64% 29.83 in 6.2 mi West 13.8 mph - N/A   Partly Cloudy
5:50 PM 69.8 °F 55.4 °F 60% 29.83 in 6.2 mi WSW 12.7 mph - N/A   Partly Cloudy
6:20 PM 69.8 °F 53.6 °F 56% 29.83 in 6.2 mi West 13.8 mph - N/A   Partly Cloudy
6:50 PM 69.8 °F 55.4 °F 60% 29.83 in 6.2 mi WSW 15.0 mph - N/A   Partly Cloudy
7:20 PM 69.8 °F 53.6 °F 56% 29.83 in 6.2 mi West 13.8 mph - N/A   Partly Cloudy
7:50 PM 68.0 °F 53.6 °F 60% 29.83 in 6.2 mi West 16.1 mph - N/A   Partly Cloudy
8:20 PM 66.2 °F 53.6 °F 64% 29.86 in 6.2 mi West 11.5 mph - N/A   Partly Cloudy
8:50 PM 64.4 °F 53.6 °F 68% 29.86 in 6.2 mi West 10.4 mph - N/A   Partly Cloudy
9:20 PM 62.6 °F 50.0 °F 63% 29.86 in 6.2 mi West 15.0 mph - N/A   Partly Cloudy
9:50 PM 60.8 °F 50.0 °F 68% 29.89 in - West 11.5 mph - N/A   Clear
10:20 PM 59.0 °F 51.8 °F 77% 29.89 in - West 10.4 mph - N/A   Clear
10:50 PM 62.6 °F 51.8 °F 68% 29.89 in - WSW 10.4 mph - N/A   Clear
11:20 PM 60.8 °F 51.8 °F 72% 29.89 in - West 11.5 mph - N/A   Clear
11:50 PM 60.8 °F 51.8 °F 72% 29.92 in - WSW 11.5 mph - N/A   Clear